Yaogan Weixing 25 fu xing yi

operational
NORAD ID: 40339 Int'l Des: 2014-080 Owner: ZZB Country: CN Constellation: yaogan
LEO

Über Yaogan Weixing 25 fu xing yi

Beschreibung wird geladen...

Live-Position

3D-Globus wird geladen...

Nächste Überflüge

Höhenverlauf

Altitude vs Time

uPlot chart will show altitude changes over time

Zweizeiliger Elementsatz

1 40339U 14080B 26062.65262767 -.00000111 00000-0 -23489-4 0 9994
2 40339 63.3866 222.8003 0357648 8.4526 352.2310 13.45424619551431
Epoch: 3. März 2026 • Age: 22 hours

Aktueller Status

Höhe 1242.9 km
Geschwindigkeit 7.17 km/s
Subsatellitenpunkt 40.05°N, 109.17°W
Startdatum 10. Dez. 2014
Alter 11.2 years
Typ military

Technische Details

Klassifizierung Payload
Masse 500.00 kg
Trockenmasse 500.00 kg
Gesamtmasse 500.00 kg
Länge 0.50 m
Durchmesser 0.50 m
Spannweite 1.00 m
Form Box + 2 Pan
Hersteller CAST
Phasenstatus In Orbit
Besitzer/Staat ZZB/CN

Große Konstellationen

Loading constellations...